Home > Weather > Panama > Past weeks

Flag for Panama Weather for the Past 2 Weeks in Panama, Panama

Now
79 °F

Passing clouds.


Feels Like: 82 °F
Forecast: 79 / 91 °F
Wind: 6 mph from West

Location: Panama Airport

Current Time: Feb 13, 2016 at 4:07:04 AM

Latest Report: Feb 13, 2016 at 3:00 AM


Visibility: N/A

Pressure: 29.80 "Hg

Humidity: 79%

Dew point: 72 °F

Location of PanamaLocation

Historic Weather in Panama — Graph

°F

Panama Temperature Yesterday

Maximum temperature yesterday: 91 °F (at 11:00 AM)
Minimum temperature yesterday: 77 °F (at 6:00 AM)
Average temperature yesterday: 83 °F

High & Low Weather Summary for the Past Weeks

 TemperatureHumidityPressure
High95 °F (Feb 4, 3:00 PM)100% (Feb 1, 6:00 AM)29.95 "Hg (Feb 1, 6:00 AM)
Low66 °F (Feb 1, 6:00 AM)32% (Feb 7, 11:00 AM)29.74 "Hg (Feb 1, 3:00 PM)
Average82 °F68%29.85 "Hg
* Reported Jan 29 3:00 AM — Feb 13 3:00 AM, Panama, Weather by CustomWeather, © 2016

Note: Actual official high and low records may vary slightly from our data, if they occured in-between our weather recording intervals... More about our weather records

Advertising

Panama Weather History for the Previous 24 Hours

 ConditionsComfort  
Time TempWeatherWind HumidityBarometerVisibility
3:00 AM
Sat, Feb 13
79 °FPassing clouds.6 mph79%29.80 "HgN/A
2:00 AM79 °FPassing clouds.5 mph79%29.83 "HgN/A
1:00 AM79 °FPassing clouds.7 mph79%29.83 "HgN/A
12:00 AM79 °FPassing clouds.6 mph79%29.86 "HgN/A
11:00 PM
Fri, Feb 12
81 °FPassing clouds.6 mph74%29.86 "HgN/A
10:00 PM81 °FPassing clouds.5 mph74%29.86 "HgN/A
9:00 PM81 °FPassing clouds.8 mph70%29.83 "HgN/A
8:00 PM81 °FPassing clouds.8 mph66%29.83 "HgN/A
7:00 PM81 °FPassing clouds.10 mph66%29.80 "HgN/A
6:00 PM82 °FScattered clouds.8 mph62%29.80 "HgN/A
5:00 PM86 °FScattered clouds.12 mph59%29.80 "HgN/A
4:00 PM86 °FScattered clouds.14 mph55%29.80 "HgN/A
3:00 PM88 °FScattered clouds.9 mph52%29.80 "HgN/A
2:00 PM90 °FScattered clouds.12 mph52%29.83 "HgN/A
1:00 PM90 °FScattered clouds.8 mph52%29.86 "HgN/A
12:00 PM91 °FScattered clouds.10 mph52%29.89 "HgN/A
11:00 AM91 °FPassing clouds.8 mph49%29.89 "HgN/A
10:00 AM90 °FPassing clouds.12 mph52%29.89 "HgN/A
9:00 AM86 °FPassing clouds.8 mph59%29.89 "HgN/A
8:00 AM84 °FPassing clouds.6 mph62%29.89 "Hg6 mi
7:00 AM79 °FScattered clouds.8 mph79%29.86 "Hg6 mi
6:00 AM77 °FPassing clouds.3 mph83%29.86 "Hg6 mi
5:00 AM79 °FPartly cloudy.3 mph79%29.83 "HgN/A
Weather by CustomWeather, © 2016

See weather overviewHow to use our weather pages